Weather in Paustovo

Russia / Vladimir Oblast     56°07′02″N   42°10′15″E
temp.,
°C
wind,
m/s
gust,
m/s
humid.,
%
clouds,
%
prec.,
mm/h
press.,
hPa
HPBL,
m
21 january, fri
fri2100:00−10s61786100 0.0 1009543
03:00−10s61588100 0.0 1008527
06:00−9s51391100 0.1 1007543
09:00−9sse51494100 0.8 1007538
12:00−8sse51493100 0.8 1007596
15:00−7sse61593100 1.4 1005651
18:00−7sse61393100 0.8 1005856
21:00−8se51391100 1.0 1005605
22 january, sat
sat2200:00−7se41294100 0.3 1005608
03:00−6sse41194100 1.0 1006478
06:00−6sse41194100 0.1 1007461
09:00−6sse41192100 0.1 1010435
12:00−6se41091100 0.0 1012450
15:00−6se379298 0.0 1013390
18:00−9ese279787 0.1 1015121
21:00−11ese129892 0.1 101636
23 january, sun
sun2300:00−11se119988 0.1 101826
03:00−14s2210091 0.1 102028
06:00−17sse1110098 0.0 102312
09:00−17s1110091 0.1 102619
12:00−11ssw129495 0.0 1028146
15:00−10s11966 0.1 103020
18:00−16nne009968 0.0 10329
21:00−17ne119969 0.0 10349
24 january, mon
mon2400:00−18nne1110077 0.0 10369
03:00−19ne2210088 0.0 103715
06:00−18nne2410097 0.0 103748
09:00−18ne24100100 0.0 103964
12:00−9e239380 0.0 1038156
15:00−8ene249647 0.0 1037143
18:00−13ene239986 0.0 103734
21:00−16ese2210084 0.0 103624
25 january, tue
tue2500:00−17sse119843 0.0 103518
03:00−18sse119951 0.0 103412
06:00−18s249959 0.0 103269
09:00−18s279819 0.0 1030122
12:00−11ssw388841 0.0 1028238
15:00−9s3991100 0.0 1026319
18:00−11s3119499 0.0 1025255
21:00−13s3119553 0.0 1024234